DW9142 Weather Reports


time (UTC)temp
F
wind
direction
speed
knots
gust
knots
rain 1hr
in
rain 24hr
in
rain mn
in
humidity
%
barometer
mb
20260505170041 83 0.0 0.0 0.00 0.00 0.00 40 1009.9
20260505164532 82 0.0 0.0 0.00 0.00 0.00 39 1009.9
20260505163028 81 0.0 0.0 0.00 0.00 0.00 39 1010.1
20260505161523 80 0.0 0.0 0.00 0.00 0.00 41 1010.4
20260505153010 77 0.0 0.0 0.00 0.00 0.00 46 1010.8
20260505151506 76 0.0 0.0 0.00 0.00 0.00 47 1010.8
20260505124558 64 0.0 0.0 0.00 0.00 0.00 67 1011.4
20260505123058 62 0.0 0.0 0.00 0.00 0.00 72 1011.3
20260505121535 60 0.0 0.0 0.00 0.00 0.00 77 1011.3
20260505120031 57 0.0 0.0 0.00 0.00 0.00 84 1011.4
20260505114526 55 0.0 0.0 0.00 0.00 0.00 89 1011.3
20260505113032 54 0.0 0.0 0.00 0.00 0.00 89 1011.2
20260505111620 53 0.0 0.0 0.00 0.00 0.00 88 1011.2
20260505101603 53 0.0 0.0 0.00 0.00 0.00 86 1010.8
20260505100002 53 0.0 0.0 0.00 0.00 0.00 85 1010.6
20260505094557 53 0.0 0.0 0.00 0.00 0.00 84 1010.6
20260505093054 54 0.0 0.0 0.00 0.00 0.00 84 1010.5
20260505091549 54 0.0 0.0 0.00 0.00 0.00 82 1010.4
20260505090030 55 0.0 0.0 0.00 0.00 0.00 81 1010.3
20260505084520 55 0.0 0.0 0.00 0.00 0.00 81 1010.3
20260505083117 56 0.0 0.0 0.00 0.00 0.00 81 1010.4
20260505081557 56 0.0 0.0 0.00 0.00 0.00 80 1010.4
20260505080038 55 0.0 0.0 0.00 0.00 0.00 81 1010.5
20260505074528 54 0.0 0.0 0.00 0.00 0.00 82 1010.4
20260505073009 54 0.0 0.0 0.00 0.00 0.00 82 1010.3
20260505071503 54 0.0 0.0 0.00 0.00 0.00 81 1010.3
20260505070048 54 0.0 0.0 0.00 0.00 0.00 80 1010.2
20260505064552 55 0.0 0.0 0.00 0.00 0.00 79 1010.1
20260505063016 55 0.0 0.0 0.00 0.00 0.00 78 1010.0
20260505061520 55 0.0 0.0 0.00 0.00 0.00 79 1010.1
20260505060050 55 0.0 0.0 0.00 0.00 0.00 78 1010.2
20260505054556 56 0.0 0.0 0.00 0.00 0.00 77 1010.3
20260505053024 57 0.0 0.0 0.00 0.00 0.00 74 1010.3
20260505051521 57 0.0 0.0 0.00 0.00 0.00 73 1010.4
20260505041533 59 0.0 0.0 0.00 0.00 0.00 68 1010.4
20260505040011 59 0.0 0.0 0.00 0.00 0.00 68 1010.3
20260505034504 60 0.0 0.0 0.00 0.00 0.00 66 1010.4
20260505033042 60 0.0 0.0 0.00 0.00 0.00 66 1010.4
20260505031537 60 0.0 0.0 0.00 0.00 0.00 64 1010.6
20260505030016 61 0.0 0.0 0.00 0.00 0.00 62 1010.6
20260505024532 61 0.0 0.0 0.00 0.00 0.00 59 1010.7
20260505023102 62 0.0 0.0 0.00 0.00 0.00 57 1010.7
20260505021552 63 0.0 0.0 0.00 0.00 0.00 55 1010.8
20260505020047 63 0.0 0.0 0.00 0.00 0.00 53 1010.7
20260505014545 63 0.0 0.0 0.00 0.00 0.00 50 1010.7
20260505013038 63 0.0 0.0 0.00 0.00 0.00 49 1010.6
20260505011535 63 0.0 0.0 0.00 0.00 0.00 49 1010.4
20260505010029 63 0.0 0.0 0.00 0.00 0.00 48 1010.2
20260505004525 63 0.0 0.0 0.00 0.00 0.00 48 1010.1
20260505003003 64 0.0 0.0 0.00 0.00 0.00 46 1009.9
20260505001600 66 0.0 0.0 0.00 0.00 0.00 43 1009.9
20260505000042 68 0.0 0.0 0.00 0.00 0.00 40 1009.7
20260504234534 68 0.0 0.0 0.00 0.00 0.00 39 1009.6
20260504233017 69 0.0 0.0 0.00 0.00 0.00 37 1009.4
20260504231522 70 0.0 0.0 0.00 0.00 0.00 36 1009.3
20260504230051 71 0.0 0.0 0.00 0.00 0.00 35 1009.2
20260504224548 71 0.0 0.0 0.00 0.00 0.00 35 1009.2
20260504223044 71 0.0 0.0 0.00 0.00 0.00 34 1009.3
20260504221543 72 0.0 0.0 0.00 0.00 0.00 33 1009.3
20260504220036 73 0.0 0.0 0.00 0.00 0.00 33 1009.3
20260504214530 73 0.0 0.0 0.00 0.00 0.00 32 1009.5
20260504213026 73 0.0 0.0 0.00 0.00 0.00 32 1009.5
20260504211522 74 0.0 0.0 0.00 0.00 0.00 33 1009.6
20260504210116 74 0.0 0.0 0.00 0.00 0.00 31 1009.7
20260504204602 74 0.0 0.0 0.00 0.00 0.00 29 1009.7
20260504203051 75 0.0 0.0 0.00 0.00 0.00 30 1009.7
20260504201529 75 0.0 0.0 0.00 0.00 0.00 30 1009.8
20260504200025 75 0.0 0.0 0.00 0.00 0.00 30 1009.8
20260504194503 75 0.0 0.0 0.00 0.00 0.00 30 1009.9
20260504193059 75 0.0 0.0 0.00 0.00 0.00 30 1010.1
20260504191546 75 0.0 0.0 0.00 0.00 0.00 31 1010.3
20260504190043 76 0.0 0.0 0.00 0.00 0.00 30 1010.5
20260504184513 75 0.0 0.0 0.00 0.00 0.00 29 1010.7
20260504183008 74 0.0 0.0 0.00 0.00 0.00 34 1010.9
20260504181548 74 0.0 0.0 0.00 0.00 0.00 30 1011.0
20260504180112 74 0.0 0.0 0.00 0.00 0.00 32 1011.3
20260504174519 74 0.0 0.0 0.00 0.00 0.00 33 1011.6
20260504173019 73 0.0 0.0 0.00 0.00 0.00 35 1011.7
20260504171556 73 0.0 0.0 0.00 0.00 0.00 34 1011.9